�������l�o���
Date,Time,MP-1(��Sv/h),MP-2(��Sv/h),MP-3(��Sv/h),MP-4(��Sv/h),MP-5(��Sv/h),MP-6(��Sv/h),MP-7(��Sv/h),MP-8(��Sv/h),����,����(m/s),���J
2017/08/15,00:00,0.926,1.455,0.966,1.744,1.193,0.508,0.932,0.864,�k,2.3,��
2017/08/15,00:10,0.928,1.449,0.964,1.748,1.194,0.509,0.933,0.862,�k,2.8,��
2017/08/15,00:20,0.927,1.449,0.966,1.747,1.191,0.511,0.933,0.863,�k,2.3,��
2017/08/15,00:30,0.927,1.453,0.965,1.745,1.194,0.507,0.932,0.863,�k�k��,2.5,��
2017/08/15,00:40,0.926,1.455,0.966,1.747,1.194,0.509,0.934,0.864,�k�k��,2.3,��
2017/08/15,00:50,0.927,1.451,0.965,1.747,1.193,0.509,0.935,0.863,�k�k��,1.7,��
2017/08/15,01:00,0.928,1.452,0.968,1.746,1.195,0.509,0.934,0.863,�k�k��,3.0,��
2017/08/15,01:10,0.928,1.452,0.966,1.748,1.194,0.508,0.933,0.864,�k�k��,3.0,��
2017/08/15,01:20,0.930,1.452,0.966,1.747,1.195,0.509,0.935,0.863,�k�k��,2.5,��
2017/08/15,01:30,0.929,1.453,0.967,1.747,1.193,0.510,0.933,0.865,�k�k��,2.3,��
2017/08/15,01:40,0.927,1.453,0.968,1.751,1.191,0.510,0.933,0.864,�k,2.9,��
2017/08/15,01:50,0.930,1.454,0.966,1.748,1.193,0.510,0.933,0.862,�k�k��,3.2,��
2017/08/15,02:00,0.929,1.451,0.965,1.749,1.193,0.509,0.933,0.863,�k�k��,3.1,��
2017/08/15,02:10,0.927,1.452,0.968,1.749,1.194,0.510,0.934,0.865,�k�k��,3.1,��
2017/08/15,02:20,0.927,1.454,0.966,1.748,1.190,0.509,0.933,0.866,�k�k��,2.5,��
2017/08/15,02:30,0.927,1.453,0.966,1.747,1.197,0.510,0.932,0.863,�k�k��,2.3,��
2017/08/15,02:40,0.929,1.453,0.967,1.750,1.195,0.511,0.933,0.862,�k�k��,2.3,��
2017/08/15,02:50,0.927,1.454,0.968,1.751,1.193,0.509,0.934,0.865,�k�k��,2.3,��
2017/08/15,03:00,0.927,1.451,0.967,1.750,1.196,0.509,0.933,0.864,�k,2.6,��
2017/08/15,03:10,0.927,1.451,0.968,1.750,1.194,0.509,0.933,0.864,�k,2.3,��
2017/08/15,03:20,0.927,1.452,0.966,1.747,1.194,0.510,0.935,0.863,�k�k��,2.5,�L
2017/08/15,03:30,0.930,1.452,0.967,1.750,1.197,0.509,0.935,0.866,�k�k��,2.9,��
2017/08/15,03:40,0.928,1.450,0.967,1.751,1.194,0.510,0.935,0.863,�k,2.2,��
2017/08/15,03:50,0.925,1.451,0.968,1.748,1.197,0.509,0.932,0.863,�k,1.5,�L
2017/08/15,04:00,0.929,1.450,0.966,1.751,1.194,0.509,0.929,0.864,�k�k��,1.9,��
2017/08/15,04:10,0.929,1.452,0.968,1.749,1.193,0.509,0.932,0.862,�k�k��,1.7,�L
2017/08/15,04:20,0.929,1.455,0.967,1.752,1.193,0.508,0.932,0.862,�k�k��,2.0,��
2017/08/15,04:30,0.927,1.452,0.968,1.748,1.196,0.509,0.931,0.862,�k�k��,2.2,�L
2017/08/15,04:40,0.928,1.451,0.967,1.747,1.194,0.508,0.931,0.861,�k�k��,2.6,�L
2017/08/15,04:50,0.927,1.451,0.968,1.747,1.194,0.511,0.930,0.864,�k�k��,2.3,�L
2017/08/15,05:00,0.928,1.452,0.966,1.747,1.194,0.509,0.931,0.863,�k��,2.9,��
2017/08/15,05:10,0.929,1.453,0.969,1.747,1.194,0.509,0.928,0.863,�k�k��,2.6,��
2017/08/15,05:20,0.930,1.450,0.967,1.752,1.193,0.511,0.929,0.863,�k�k��,1.7,�L
2017/08/15,05:30,0.929,1.448,0.965,1.747,1.194,0.508,0.930,0.863,�k��,2.0,��
2017/08/15,05:40,0.930,1.453,0.969,1.750,1.195,0.508,0.933,0.863,�k�k��,1.5,��
2017/08/15,05:50,0.928,1.451,0.965,1.749,1.193,0.510,0.929,0.863,�k�k��,2.3,��
2017/08/15,06:00,0.929,1.451,0.968,1.749,1.194,0.509,0.929,0.862,�k�k��,2.3,�L
2017/08/15,06:10,0.928,1.456,0.966,1.748,1.192,0.511,0.930,0.863,�k�k��,2.0,�L
2017/08/15,06:20,0.929,1.451,0.966,1.750,1.193,0.508,0.931,0.862,�k�k��,1.9,��
2017/08/15,06:30,0.925,1.454,0.966,1.746,1.192,0.509,0.930,0.860,�k,2.0,�L
2017/08/15,06:40,0.926,1.452,0.966,1.748,1.193,0.509,0.931,0.862,�k�k��,1.2,�L
2017/08/15,06:50,0.924,1.449,0.968,1.748,1.195,0.509,0.934,0.863,�k,1.2,�L
2017/08/15,07:00,0.928,1.451,0.967,1.747,1.191,0.508,0.931,0.862,�k,1.5,�L
2017/08/15,07:10,0.928,1.453,0.965,1.746,1.193,0.510,0.929,0.864,�k,1.2,�L
2017/08/15,07:20,0.929,1.454,0.968,1.748,1.193,0.511,0.934,0.862,�k,0.9,�L
2017/08/15,07:30,0.929,1.451,0.965,1.750,1.193,0.508,0.932,0.863,�k,0.9,�L
2017/08/15,07:40,0.926,1.450,0.967,1.751,1.194,0.511,0.932,0.863,�k,0.9,�L
2017/08/15,07:50,0.929,1.455,0.967,1.751,1.194,0.512,0.932,0.864,�k,1.1,�L
2017/08/15,08:00,0.927,1.451,0.967,1.751,1.193,0.512,0.932,0.862,�k�k��,0.9,�L
2017/08/15,08:10,0.929,1.454,0.968,1.748,1.192,0.513,0.932,0.862,�k�k��,0.6,�L
2017/08/15,08:20,0.927,1.453,0.967,1.751,1.196,0.512,0.932,0.861,�k�k��,1.1,�L
2017/08/15,08:30,0.927,1.452,0.967,1.750,1.192,0.511,0.932,0.863,�k�k��,0.8,�L
2017/08/15,08:40,0.927,1.453,0.967,1.751,1.195,0.510,0.932,0.861,�k�k��,0.9,�L
2017/08/15,08:50,0.927,1.450,0.968,1.749,1.193,0.510,0.931,0.861,�k�k��,0.9,�L
2017/08/15,09:00,0.922,1.447,0.965,1.746,1.191,0.510,0.929,0.859,��,1.2,�L
2017/08/15,09:10,0.924,1.440,0.964,1.741,1.187,0.511,0.929,0.860,��,1.7,�L
2017/08/15,09:20,0.922,1.439,0.961,1.742,1.188,0.510,0.929,0.859,���쓌,3.0,�L
2017/08/15,09:30,0.919,1.437,0.962,1.741,1.184,0.509,0.929,0.858,��,2.6,�L
2017/08/15,09:40,0.918,1.431,0.960,1.736,1.182,0.510,0.927,0.858,��,3.7,�L
2017/08/15,09:50,0.918,1.431,0.958,1.734,1.177,0.508,0.925,0.859,��,3.7,�L
2017/08/15,10:00,0.914,1.429,0.958,1.729,1.178,0.507,0.927,0.855,��,5.4,�L
2017/08/15,10:10,0.915,1.428,0.957,1.728,1.178,0.508,0.925,0.857,���쓌,5.0,�L
2017/08/15,10:20,0.914,1.427,0.954,1.727,1.175,0.508,0.924,0.855,��,4.6,�L
2017/08/15,10:30,0.912,1.425,0.955,1.728,1.174,0.507,0.925,0.856,���쓌,3.8,�L
2017/08/15,10:40,0.915,1.427,0.954,1.729,1.177,0.507,0.927,0.856,���쓌,3.2,�L
2017/08/15,10:50,0.911,1.428,0.953,1.725,1.174,0.506,0.924,0.855,���쓌,4.0,�L
2017/08/15,11:00,0.910,1.419,0.949,1.719,1.167,0.506,0.923,0.855,���쓌,4.0,�L
2017/08/15,11:10,0.911,1.417,0.949,1.715,1.167,0.505,0.921,0.854,���쓌,4.1,�L
2017/08/15,11:20,0.910,1.417,0.949,1.712,1.165,0.506,0.923,0.853,���쓌,3.0,�L
2017/08/15,11:30,0.913,1.420,0.948,1.710,1.166,0.505,0.923,0.853,���쓌,4.5,�L
2017/08/15,11:40,0.913,1.422,0.950,1.713,1.166,0.507,0.920,0.852,��,5.3,�L
2017/08/15,11:50,0.913,1.423,0.950,1.712,1.167,0.506,0.922,0.850,��,5.1,�L
2017/08/15,12:00,0.912,1.421,0.951,1.710,1.169,0.506,0.922,0.852,���쓌,5.4,�L
2017/08/15,12:10,0.914,1.421,0.952,1.710,1.166,0.508,0.922,0.852,���쓌,5.2,�L
2017/08/15,12:20,0.914,1.421,0.950,1.713,1.167,0.506,0.922,0.852,���쓌,4.0,�L
2017/08/15,12:30,0.915,1.422,0.953,1.715,1.168,0.508,0.922,0.853,���쓌,4.2,�L
2017/08/15,12:40,0.915,1.422,0.951,1.714,1.166,0.508,0.921,0.853,���쓌,3.1,�L
2017/08/15,12:50,0.917,1.424,0.952,1.717,1.169,0.506,0.922,0.852,�쓌,2.9,�L
2017/08/15,13:00,0.917,1.425,0.952,1.717,1.170,0.507,0.924,0.853,���쓌,2.9,�L
2017/08/15,13:10,0.917,1.424,0.952,1.717,1.170,0.506,0.924,0.853,���쓌,3.0,�L
2017/08/15,13:20,0.918,1.428,0.952,1.717,1.169,0.506,0.921,0.853,���쓌,2.5,�L
2017/08/15,13:30,0.917,1.427,0.954,1.720,1.170,0.507,0.923,0.854,���쓌,2.6,�L
2017/08/15,13:40,0.917,1.430,0.952,1.720,1.169,0.508,0.924,0.853,���쓌,2.6,�L
2017/08/15,13:50,0.918,1.432,0.954,1.720,1.172,0.507,0.922,0.855,��,2.6,�L
2017/08/15,14:00,0.917,1.427,0.956,1.719,1.170,0.507,0.922,0.855,��,2.3,�L
2017/08/15,14:10,0.913,1.424,0.952,1.715,1.167,0.505,0.923,0.853,���쓌,3.3,�L
2017/08/15,14:20,0.909,1.417,0.953,1.710,1.163,0.507,0.919,0.854,�k��,2.8,�L
2017/08/15,14:30,0.909,1.417,0.952,1.705,1.163,0.508,0.920,0.853,���k��,2.3,�L
2017/08/15,14:40,0.911,1.419,0.951,1.708,1.162,0.507,0.920,0.852,���k��,1.9,�L
2017/08/15,14:50,0.910,1.421,0.952,1.710,1.163,0.507,0.919,0.853,�k��,1.7,�L
2017/08/15,15:00,0.910,1.422,0.953,1.711,1.164,0.505,0.921,0.855,��,2.3,�L
2017/08/15,15:10,0.913,1.424,0.952,1.715,1.166,0.506,0.923,0.852,���k��,2.2,�L
2017/08/15,15:20,0.914,1.424,0.952,1.716,1.166,0.505,0.922,0.854,�k�k��,2.0,�L
2017/08/15,15:30,0.915,1.429,0.953,1.717,1.166,0.508,0.923,0.853,�k�k��,1.2,�L
2017/08/15,15:40,0.915,1.429,0.954,1.717,1.166,0.507,0.921,0.853,�k��,1.7,�L
2017/08/15,15:50,0.914,1.427,0.953,1.715,1.170,0.506,0.923,0.855,���k��,1.2,�L
2017/08/15,16:00,0.913,1.431,0.953,1.721,1.169,0.508,0.922,0.853,���k��,1.5,�L
2017/08/15,16:10,0.914,1.432,0.955,1.717,1.170,0.509,0.923,0.853,���k��,2.2,��
2017/08/15,16:20,0.915,1.429,0.954,1.720,1.170,0.506,0.923,0.854,���k��,2.8,��
2017/08/15,16:30,0.916,1.427,0.953,1.719,1.170,0.508,0.922,0.853,���k��,2.5,��
2017/08/15,16:40,0.916,1.433,0.955,1.723,1.168,0.506,0.922,0.854,���k��,3.2,��
2017/08/15,16:50,0.916,1.432,0.954,1.718,1.172,0.507,0.924,0.854,���k��,2.5,��
2017/08/15,17:00,0.917,1.433,0.955,1.721,1.171,0.506,0.924,0.854,���k��,2.3,��
2017/08/15,17:10,0.917,1.432,0.955,1.723,1.173,0.505,0.922,0.856,���k��,2.9,��
2017/08/15,17:20,0.916,1.434,0.953,1.722,1.170,0.506,0.924,0.855,���k��,2.3,��
2017/08/15,17:30,0.917,1.434,0.956,1.722,1.169,0.507,0.922,0.854,��,2.3,��
2017/08/15,17:40,0.918,1.434,0.957,1.724,1.175,0.506,0.925,0.856,��,2.2,��
2017/08/15,17:50,0.917,1.434,0.955,1.725,1.174,0.504,0.923,0.855,���k��,2.8,��
2017/08/15,18:00,0.918,1.434,0.956,1.724,1.173,0.507,0.923,0.857,���k��,2.2,��
2017/08/15,18:10,0.918,1.434,0.957,1.727,1.177,0.507,0.923,0.854,�k��,2.2,��
2017/08/15,18:20,0.917,1.436,0.957,1.729,1.176,0.507,0.925,0.855,�k�k��,3.1,��
2017/08/15,18:30,0.917,1.437,0.959,1.727,1.175,0.507,0.924,0.854,�k�k��,3.8,�L
2017/08/15,18:40,0.917,1.436,0.958,1.726,1.176,0.507,0.925,0.855,�k,3.5,�L
2017/08/15,18:50,0.915,1.439,0.957,1.726,1.175,0.506,0.926,0.856,�k�k��,3.9,�L
2017/08/15,19:00,0.918,1.439,0.956,1.728,1.174,0.506,0.926,0.855,�k�k��,3.1,��
2017/08/15,19:10,0.918,1.436,0.956,1.727,1.176,0.507,0.926,0.855,�k�k��,2.8,�L
2017/08/15,19:20,0.917,1.436,0.958,1.728,1.174,0.506,0.925,0.856,�k�k��,3.0,�L
2017/08/15,19:30,0.917,1.437,0.956,1.726,1.175,0.506,0.923,0.856,�k�k��,2.8,�L
2017/08/15,19:40,0.919,1.435,0.957,1.724,1.174,0.508,0.923,0.854,�k�k��,3.2,�L
2017/08/15,19:50,0.918,1.437,0.956,1.724,1.172,0.507,0.922,0.856,�k,3.2,�L
2017/08/15,20:00,0.921,1.434,0.957,1.726,1.174,0.508,0.924,0.855,�k�k��,3.0,��
2017/08/15,20:10,0.917,1.436,0.956,1.724,1.172,0.506,0.924,0.855,�k�k��,3.1,��
2017/08/15,20:20,0.919,1.433,0.955,1.727,1.173,0.507,0.923,0.855,�k�k��,2.9,��
2017/08/15,20:30,0.919,1.434,0.955,1.724,1.175,0.505,0.925,0.859,�k��,2.3,�L
2017/08/15,20:40,0.920,1.436,0.956,1.727,1.173,0.506,0.928,0.858,�k,2.6,�L
2017/08/15,20:50,0.918,1.439,0.954,1.726,1.175,0.505,0.924,0.857,�k�k��,3.3,��
2017/08/15,21:00,0.921,1.436,0.955,1.724,1.176,0.507,0.923,0.858,�k��,3.3,�L
2017/08/15,21:10,0.921,1.438,0.956,1.726,1.176,0.506,0.925,0.855,�k��,3.0,�L
2017/08/15,21:20,0.920,1.433,0.956,1.728,1.175,0.507,0.924,0.857,���k��,3.4,��
2017/08/15,21:30,0.919,1.436,0.957,1.726,1.174,0.506,0.924,0.857,���k��,4.5,��
2017/08/15,21:40,0.917,1.439,0.956,1.728,1.176,0.506,0.923,0.858,���k��,5.2,��
2017/08/15,21:50,0.920,1.438,0.957,1.727,1.177,0.507,0.926,0.858,���k��,4.7,��
2017/08/15,22:00,0.918,1.438,0.959,1.728,1.176,0.507,0.926,0.858,���k��,4.6,��
2017/08/15,22:10,0.919,1.435,0.956,1.729,1.175,0.507,0.926,0.859,���k��,4.9,��
2017/08/15,22:20,0.919,1.437,0.957,1.730,1.176,0.506,0.926,0.858,���k��,5.3,��
2017/08/15,22:30,0.918,1.434,0.958,1.731,1.177,0.507,0.926,0.858,���k��,5.4,��
2017/08/15,22:40,0.918,1.437,0.959,1.730,1.178,0.506,0.927,0.858,���k��,5.1,��
2017/08/15,22:50,0.917,1.437,0.956,1.729,1.179,0.507,0.925,0.858,���k��,6.2,��
2017/08/15,23:00,0.919,1.439,0.958,1.732,1.175,0.507,0.925,0.857,�k��,5.6,��
2017/08/15,23:10,0.920,1.440,0.958,1.730,1.177,0.507,0.924,0.858,���k��,5.2,��
2017/08/15,23:20,0.920,1.439,0.957,1.729,1.178,0.506,0.925,0.859,���k��,5.2,��
2017/08/15,23:30,0.920,1.440,0.958,1.733,1.177,0.506,0.926,0.858,�k��,4.8,��
2017/08/15,23:40,0.923,1.439,0.957,1.733,1.179,0.506,0.924,0.857,���k��,5.6,��
2017/08/15,23:50,0.919,1.441,0.959,1.730,1.180,0.507,0.926,0.859,���k��,5.5,��
